SCP
0 0 0 0 0 0 0 0 0 0 0 0 0 0 0 0 0 0 0 0 0 0 0 0 0 0 0 0 0 0 0 0 0 0 0 0 0 0 0 0 0 0 0
0 0 0 0 0 0 0 0 0 0 0 0 0 0 0 0 0 0 0 0 0 0 0 0 0 0 0 0 0 0 0 0 0 0 0 0 0 0 0 0 0 0 0
0 0 0 0 0 0 0 0 0 0 0 0 0 0 0 0 0 0 0 0 0 0 0 0 0 0 0 0 0 0 0 0 0 0 0 0 0 0 0 0 0 0 0
0 0 0 0 0 0 0 0 0 0 0 0 0 0 0 0 0 0 0 0 0 0 0 0 0 0 0 0 0 0 0 0 0 0 0 0 0 0 0 0 0 0 0
0 0 0 0 0 0 0 0 0 0 0 0 0 0 0 0 0 0 0 0 0 0 0 0 0 0 0 0 0 0 0 0 0 0 0 0 0 0 0 0 0 0 0
0 0 0 0 0 0 0 0 0 0 0 0 0 0 0 0 0 0 0 0 0 0 0 0 0 0 0 0 0 0 0 0 0 0 0 0 0 0 0 0 0 0 0
0 0 0 0 0 0 0 0 0 0 0 0 0 0 0 0 0 0 0 0 0 0 0 0 0 0 0 0 0 0 0 0 0 0 0 0 0 0 0 0 0 0 0
0 0 0 0 0 0 0 0 0 0 0 0 0 0 0 0 0 0 0 0 0 0 0 0 0 0 0 0 0 0 0 0 0 0 0 0 0 0 0 0 0 0 0
0 0 0 0 0 0 0 0 0 0 0 0 0 0 0 0 0 0 0 0 0 0 0 0 0 0 0 0 0 0 0 0 0 0 0 0 0 0 0 0 0 0 0
0 0 0 0 0 0 0 0 0 0 0 0 0 0 0 0 0 0 0 0 0 0 0 0 0 0 0 0 0 0 0 0 0 0 0 0 0 0 0 0 0 0 0
0 0 0 0 0 0 0 0 0 0 0 0 0 0 0 0 0 0 0 0 0 0 0 0 0 0 0 0 0 0 0 0 0 0 0 0 0 0 0 0 0 0 0
0 0 0 0 0 0 0 0 0 0 0 0 0 0 0 0 0 0 0 0 0 0 0 0 0 0 0 0 0 0 0 0 0 0 0 0 0 0 0 0 0 0 0
0 0 0 0 0 0 0 0 0 0 0 0 0 0 0 0 0 0 0 0 0 0 0 0 0 0 0 0 0 0 0 0 0 0 0 0 0 0 0 0 0 0 0
0 0 0 0 0 0 0 0 0 0 0 0 0 0 0 0 0 0 0 0 0 0 0 0 0 0 0 0 0 0 0 0 0 0 0 0 0 0 0 0 0 0 0
0 0 0 0 0 0 0 0 0 0 0 0 0 0 0 0 0 0 0 0 0 0 0 0 0 0 0 0 0 0 0 0 0 0 0 0 0 0 0 0 0 0 0
0 0 0 0 0 0 0 0 0 0 0 0 0 0 0 0 0 0 0 0 0 0 0 0 0 0 0 0 0 0 0 0 0 0 0 0 0 0 0 0 0 0 0
0 0 0 0 0 0 0 0 0 0 0 0 0 0 0 0 0 0 0 0 0 0 0 0 0 0 0 0 0 0 0 0 0 0 0 0 0 0 0 0 0 0 0
0 0 0 0 0 0 0 0 0 0 0 0 0 0 0 0 0 0 0 0 0 0 0 0 0 0 0 0 0 0 0 0 0 0 0 0 0 0 0 0 0 0 0
0 0 0 0 0 0 0 0 0 0 0 0 0 0 0 0 0 0 0 0 0 0 0 0 0 0 0 0 0 0 0 0 0 0 0 0 0 0 0 0 0 0 0
0 0 0 0 0 0 0 0 0 0 0 0 0 0 0 0 0 0 0 0 0 0 0 0 0 0 0 0 0 0 0 0 0 0 0 0 0 0 0 0 0 0 0
0 0 0 0 0 0 0 0 0 0 0 0 0 0 0 0 0 0 0 0 0 0 0 0 0 0 0 0 0 0 0 0 0 0 0 0 0 0 0 0 0 0 0
0 0 0 0 0 0 0 0 0 0 0 0 0 0 0 0 0 0 0 0 0 0 0 0 0 0 0 0 0 0 0 0 0 0 0 0 0 0 0 0 0 0 0
0 0 0 0 0 0 0 0 0 0 0 0 0 0 0 0 0 0 0 0 0 0 0 0 0 0 0 0 0 0 0 0 0 0 0 0 0 0 0 0 0 0 0
0 0 0 0 0 0 0 0 0 0 0 0 0 0 0 0 0 0 0 0 0 0 0 0 0 0 0 0 0 0 0 0 0 0 0 0 0 0 0 0 0 0 0
0 0 0 0 0 0 0 0 0 0 0 0 0 0 0 0 0 0 0 0 0 0 0 0 0 0 0 0 0 0 0 0 0 0 0 0 0 0 0 0 0 0 0
0 0 0 0 0 0 0 0 0 0 0 0 0 0 0 0 0 0 0 0 0 0 0 0 0 0 0 0 0 0 0 0 0 0 0 0 0 0 0 0 0 0 0
Wind_Speed
2 3 3 4 4 4 4 5 5 6 7 7 8 8 9 8 8 8 8 9 9 8 7 7 8 8 6 5 6 7 7 7 14 9 5 5 7 8 9 10 10 12 13
1 1 2 3 4 4 5 5 5 6 7 7 8 8 9 9 8 8 9 9 9 10 10 9 9 8 8 7 6 8 8 8 10 14 7 5 9 9 10 11 11 11 10
3 3 3 3 4 5 5 6 6 6 7 7 7 8 10 10 10 10 9 9 9 9 10 10 11 9 10 8 8 9 8 8 9 11 11 6 7 5 7 8 8 7 8
3 3 4 5 5 5 6 6 6 7 7 8 9 9 10 11 11 11 12 11 11 11 10 10 11 10 12 10 10 10 9 10 9 11 10 6 6 5 5 7 7 8 9
3 3 4 5 5 5 6 6 7 7 8 9 10 10 10 10 10 12 12 12 13 14 13 12 12 13 17 15 12 10 9 10 10 11 11 7 7 6 6 5 9 7 10
2 3 4 5 5 6 7 8 9 9 10 10 11 12 13 12 20 26 22 15 15 16 17 16 14 14 16 25 27 25 21 15 13 12 12 13 11 9 8 8 8 8 10
2 3 4 5 6 7 9 10 11 12 12 13 14 14 16 19 27 29 29 21 18 17 18 18 17 15 16 15 21 26 25 27 28 19 17 18 13 9 10 12 11 11 11
2 3 4 5 6 9 10 11 12 12 13 14 15 16 17 20 28 29 30 22 19 19 19 19 20 20 19 20 17 18 19 19 21 17 17 17 14 10 11 14 14 14 9
2 3 4 5 6 9 10 12 12 12 13 14 14 14 15 18 26 29 29 17 17 21 21 20 21 22 28 33 25 21 22 20 24 29 29 27 28 25 17 9 10 10 12
2 3 4 4 5 8 11 12 11 11 13 14 15 14 15 16 24 28 28 14 15 17 17 18 21 24 30 32 23 20 22 21 16 15 19 23 21 20 24 17 13 13 9
2 3 5 6 7 9 9 10 10 12 13 13 15 15 14 15 21 26 27 15 14 16 15 15 15 27 31 32 30 21 24 24 17 16 15 14 13 12 12 13 13 14 15
3 5 6 7 7 7 8 10 9 10 12 12 12 13 12 13 17 22 27 27 26 18 16 16 17 29 33 34 28 28 34 30 16 15 15 14 13 12 11 12 14 15 15
3 6 7 7 7 7 8 10 9 8 9 11 11 12 12 11 14 25 27 30 31 21 17 26 31 35 34 26 28 34 27 18 15 16 16 14 12 11 9 9 11 13 14
5 6 7 6 7 6 7 8 7 8 9 11 12 13 13 13 12 12 13 15 21 21 18 22 31 33 30 27 22 20 15 15 15 16 14 11 8 8 10 10 10 10 11
5 6 6 6 6 7 7 7 10 10 12 15 13 13 14 14 16 27 24 17 15 17 19 15 13 13 13 12 13 13 12 13 14 13 12 10 9 10 10 10 10 10 11
5 5 5 5 5 6 8 10 16 18 24 26 26 23 17 23 31 32 32 32 33 32 23 13 12 12 13 13 13 12 12 12 12 12 11 10 10 10 10 9 10 11 12
5 6 5 6 6 7 7 9 11 15 22 24 24 26 25 28 30 30 29 29 27 25 13 11 11 12 13 13 12 12 12 12 11 11 10 9 9 10 10 10 11 11 11
5 6 6 5 6 6 7 8 8 10 13 14 18 24 27 28 29 28 27 21 14 13 9 11 12 13 13 13 12 11 11 11 10 11 10 9 9 9 9 10 10 11 10
5 4 4 5 5 6 6 7 8 9 9 11 12 15 20 24 24 23 20 9 10 11 11 11 12 13 13 12 11 10 10 10 11 10 9 9 8 9 8 9 9 11 10
5 7 6 4 5 5 5 6 7 7 9 9 10 11 13 12 11 13 11 9 9 10 11 12 12 13 13 12 11 9 9 9 10 10 9 8 7 7 7 8 9 9 9
4 5 6 5 4 5 5 5 6 7 7 8 9 12 19 10 10 11 11 10 10 11 11 12 12 13 12 11 10 9 9 7 7 6 6 5 4 4 4 5 6 7 7
4 4 3 4 4 4 5 5 5 6 7 9 9 11 17 9 8 9 9 10 10 9 10 10 11 11 11 11 11 10 8 7 6 4 2 1 1 2 3 4 5 6 7
3 4 4 4 4 5 5 4 5 5 6 7 8 8 8 8 8 9 10 10 10 10 9 9 10 10 11 10 10 10 9 8 7 6 5 4 4 4 4 5 7 7 8
3 4 4 4 4 4 4 5 5 5 6 6 7 7 7 8 9 10 10 10 10 10 9 9 10 14 17 13 10 9 9 9 8 7 8 6 6 5 6 6 6 8 8
3 3 4 4 4 4 4 5 5 5 5 6 6 6 7 7 8 9 9 9 11 10 12 11 10 12 16 17 13 10 12 14 12 8 7 6 7 7 7 8 7 8 8
3 4 4 3 4 4 4 4 5 5 5 6 6 6 7 7 8 8 8 9 10 10 10 9 12 15 16 13 15 15 13 13 13 12 8 6 7 7 7 7 9 9 9
Wind_Direction
18 11 8 359 356 355 351 342 337 335 337 337 334 331 330 329 331 331 325 323 319 312 305 293 283 276 269 257 246 244 243 239 263 267 234 225 220 225 228 221 220 216 219
257 296 315 320 324 325 318 314 319 320 320 319 320 320 319 319 317 315 312 312 308 306 304 299 293 289 278 269 258 252 249 240 253 269 259 230 225 219 222 222 220 218 216
237 254 278 290 294 294 293 296 300 300 302 304 305 304 305 307 307 306 302 298 293 290 291 291 291 288 285 278 269 264 259 253 249 259 263 238 229 214 222 226 218 216 214
234 251 272 280 284 287 291 295 295 294 293 294 292 290 291 294 296 298 299 297 293 289 284 280 280 277 277 277 275 270 265 261 256 258 260 245 230 208 208 215 219 212 219
240 266 279 291 299 304 307 307 305 302 298 296 296 293 291 290 290 294 296 295 294 293 289 282 278 273 271 274 273 271 265 265 263 261 260 247 228 206 214 195 219 211 222
263 288 307 322 327 327 324 322 319 315 311 307 303 300 297 295 299 301 301 298 295 292 290 288 284 278 274 278 277 275 268 263 260 258 261 253 245 221 213 208 212 207 228
315 325 340 348 345 339 335 330 325 320 315 310 307 306 303 301 302 303 302 300 292 288 287 286 285 281 279 278 279 279 275 268 262 257 256 255 251 227 215 219 215 217 223
358 2 13 5 348 337 331 322 317 314 310 308 306 303 299 300 306 306 304 299 291 286 283 282 282 282 279 280 278 272 267 264 262 259 257 258 252 237 221 224 223 228 229
21 19 12 0 339 327 318 313 312 310 306 303 300 301 301 303 305 304 301 294 287 285 283 281 279 278 278 279 276 272 270 267 267 261 256 256 257 252 239 227 223 220 231
15 351 345 340 322 310 305 304 303 301 298 300 299 300 297 296 298 300 299 290 287 286 285 283 280 279 279 278 272 267 266 265 263 262 260 260 258 255 249 235 225 225 226
5 333 322 316 303 295 292 294 296 296 297 296 295 294 291 290 294 298 297 292 287 287 286 286 284 286 286 285 281 274 269 270 261 253 253 251 246 241 238 235 228 226 229
334 315 303 293 289 290 285 289 290 291 295 294 294 294 291 291 292 294 294 292 291 288 286 285 283 285 285 284 282 277 279 279 269 255 246 243 240 236 232 228 229 229 232
310 293 285 280 275 278 282 291 293 290 292 296 296 295 295 291 289 294 293 292 289 285 278 277 280 283 284 283 280 281 279 273 267 258 249 242 235 231 225 224 225 228 233
286 285 285 285 287 286 284 288 288 290 290 290 291 291 292 292 291 289 284 285 284 282 279 276 278 279 278 275 273 276 271 266 263 258 251 243 231 225 223 220 222 220 227
275 281 289 291 287 290 286 280 287 277 279 290 291 294 298 299 295 299 302 298 293 286 288 279 272 269 264 261 260 259 260 264 264 256 251 241 234 232 228 220 219 218 221
279 288 291 293 291 293 297 298 296 299 302 302 303 303 303 303 308 311 312 310 309 305 302 292 289 284 278 273 267 262 258 258 262 262 251 242 237 231 227 218 215 216 218
258 276 285 290 294 296 298 300 305 309 309 310 313 315 315 316 318 319 320 322 321 321 314 303 297 291 285 279 272 265 261 258 262 262 256 251 244 233 223 216 212 212 212
259 267 271 274 281 286 290 292 294 300 308 310 315 319 323 324 325 329 334 338 328 329 316 308 304 299 292 285 276 268 263 260 260 260 255 252 249 239 226 213 208 205 202
264 264 263 268 273 279 286 290 292 293 295 300 308 317 323 324 330 336 342 334 320 319 317 312 308 306 302 294 282 269 262 260 260 261 256 251 248 241 228 213 204 195 190
257 270 279 277 281 283 285 290 296 298 301 303 308 314 316 325 334 333 336 328 325 320 318 316 313 312 313 308 297 282 268 261 260 258 256 251 244 235 221 205 195 188 187
253 267 278 280 275 278 283 287 292 297 300 303 305 310 330 336 324 322 326 328 327 324 323 321 320 321 321 321 320 312 296 280 268 262 255 245 229 217 199 185 178 172 166
245 255 262 268 273 278 281 282 287 291 296 301 307 314 328 329 319 323 325 326 326 323 322 322 323 327 329 332 333 335 338 339 334 323 320 344 87 115 124 133 137 139 140
239 257 266 268 272 282 287 285 287 290 295 299 304 312 320 323 324 325 326 326 327 328 329 330 330 335 340 339 343 348 352 353 354 4 22 42 56 69 86 103 116 124 131
240 251 262 273 279 282 287 290 291 293 295 299 302 307 313 317 319 321 324 325 327 329 332 335 335 337 343 348 349 351 357 3 4 13 32 51 58 65 75 85 94 107 116
236 246 255 263 272 279 285 289 291 293 294 296 299 305 310 313 315 318 321 324 326 327 331 335 338 340 342 345 351 358 8 17 20 21 31 48 59 66 75 82 89 97 103
238 245 251 255 261 268 276 284 289 294 294 296 297 299 303 307 309 312 317 322 326 325 327 330 334 337 340 347 354 6 16 26 29 29 33 47 59 68 75 83 90 94 98